Time,TemperatureF,DewpointF,PressureIn,WindDirection,WindDirectionDegrees,WindSpeedMPH,WindSpeedGustMPH,Humidity,HourlyPrecipIn,Conditions,Clouds,dailyrainin,SolarRadiationWatts/m^2,SoftwareType,DateUTC
2013-06-24 00:00:00,65.1,58.4,29.82,West,262,1.0,1.0,79,0.00,CLR,,0.00,0.0,WeatherDisplay:10.37,2013-06-24 07:00:00,
2013-06-24 00:05:00,65.1,58.4,29.82,West,262,1.2,1.2,79,0.00,CLR,,0.00,0.0,WeatherDisplay:10.37,2013-06-24 07:05:00,
2013-06-24 00:11:00,65.1,58.4,29.82,West,262,3.5,3.5,79,0.00,CLR,,0.00,0.0,WeatherDisplay:10.37,2013-06-24 07:11:00,
2013-06-24 00:16:00,65.2,58.5,29.82,West,262,2.3,2.3,79,0.00,CLR,,0.00,0.0,WeatherDisplay:10.37,2013-06-24 07:16:00,
2013-06-24 00:21:00,65.2,58.5,29.83,West,262,3.5,0.0,79,0.00,CLR,,0.00,0.0,WeatherDisplay:10.37,2013-06-24 07:21:00,
2013-06-24 00:26:00,65.1,58.4,29.82,West,262,3.5,3.5,79,0.00,CLR,,0.00,0.0,WeatherDisplay:10.37,2013-06-24 07:26:00,
2013-06-24 00:32:00,65.2,58.5,29.82,West,262,2.3,2.3,79,0.00,CLR,,0.00,0.0,WeatherDisplay:10.37,2013-06-24 07:32:00,
2013-06-24 00:37:00,65.2,58.5,29.82,West,262,1.2,1.2,79,0.00,CLR,,0.00,0.0,WeatherDisplay:10.37,2013-06-24 07:37:00,
2013-06-24 00:42:00,65.2,58.5,29.82,West,262,3.5,3.5,79,0.00,CLR,,0.00,0.0,WeatherDisplay:10.37,2013-06-24 07:42:00,
2013-06-24 00:47:00,65.1,58.4,29.82,West,262,1.2,0.0,79,0.00,CLR,,0.00,0.0,WeatherDisplay:10.37,2013-06-24 07:47:00,
2013-06-24 00:53:00,65.1,58.4,29.82,West,262,2.3,2.3,79,0.00,CLR,,0.00,0.0,WeatherDisplay:10.37,2013-06-24 07:53:00,
2013-06-24 00:58:00,65.1,58.4,29.82,West,262,1.2,0.0,79,0.00,CLR,,0.00,0.0,WeatherDisplay:10.37,2013-06-24 07:58:00,
2013-06-24 01:04:00,65.2,58.5,29.82,West,262,3.5,3.5,79,0.00,CLR,,0.00,0.0,WeatherDisplay:10.37,2013-06-24 08:04:00,
2013-06-24 01:09:00,65.2,58.5,29.82,West,262,2.3,2.3,79,0.00,CLR,,0.00,0.0,WeatherDisplay:10.37,2013-06-24 08:09:00,
2013-06-24 01:14:00,65.2,58.5,29.82,West,262,3.5,3.5,79,0.00,CLR,,0.00,0.0,WeatherDisplay:10.37,2013-06-24 08:14:00,
2013-06-24 01:19:00,65.2,58.5,29.82,West,262,0.0,0.0,79,0.00,CLR,,0.00,0.0,WeatherDisplay:10.37,2013-06-24 08:19:00,
2013-06-24 01:25:00,65.2,58.5,29.82,West,262,2.3,2.3,79,0.00,CLR,,0.00,0.0,WeatherDisplay:10.37,2013-06-24 08:25:00,
2013-06-24 01:30:00,65.2,58.5,29.82,West,262,1.2,0.0,79,0.00,CLR,,0.00,0.0,WeatherDisplay:10.37,2013-06-24 08:30:00,
2013-06-24 01:35:00,65.2,58.5,29.82,West,262,3.5,0.0,79,0.00,CLR,,0.00,0.0,WeatherDisplay:10.37,2013-06-24 08:35:00,
2013-06-24 01:40:00,65.2,58.5,29.82,West,262,2.0,2.0,79,0.00,CLR,,0.00,0.0,WeatherDisplay:10.37,2013-06-24 08:40:00,
2013-06-24 01:45:00,65.2,58.5,29.82,West,262,3.5,3.5,79,0.00,CLR,,0.00,0.0,WeatherDisplay:10.37,2013-06-24 08:45:00,
2013-06-24 01:50:00,65.3,58.6,29.82,SSE,164,5.0,5.0,79,0.00,CLR,,0.00,0.0,WeatherDisplay:10.37,2013-06-24 08:50:00,
2013-06-24 01:55:00,65.2,58.9,29.82,South,171,3.5,3.5,80,0.00,CLR,,0.00,0.0,WeatherDisplay:10.37,2013-06-24 08:55:00,
2013-06-24 02:00:00,65.2,58.9,29.82,SSW,192,4.0,4.0,80,0.00,CLR,,0.00,0.0,WeatherDisplay:10.37,2013-06-24 09:00:00,
2013-06-24 02:05:00,65.2,58.9,29.82,South,180,3.5,3.5,80,0.00,CLR,,0.00,0.0,WeatherDisplay:10.37,2013-06-24 09:05:00,
2013-06-24 02:10:00,65.2,58.9,29.82,SSE,161,5.0,5.0,80,0.00,CLR,,0.00,0.0,WeatherDisplay:10.37,2013-06-24 09:10:00,
2013-06-24 02:15:00,65.1,58.8,29.82,SSW,202,3.5,3.5,80,0.00,CLR,,0.00,0.0,WeatherDisplay:10.37,2013-06-24 09:15:00,
2013-06-24 02:21:00,65.0,58.3,29.83,SSW,202,4.6,4.6,79,0.00,CLR,,0.00,0.0,WeatherDisplay:10.37,2013-06-24 09:21:00,
2013-06-24 02:26:00,65.0,58.7,29.83,SSW,208,3.5,3.5,80,0.00,CLR,,0.00,0.0,WeatherDisplay:10.37,2013-06-24 09:26:00,
2013-06-24 02:31:00,65.0,58.7,29.82,SSW,196,4.6,4.6,80,0.00,CLR,,0.00,0.0,WeatherDisplay:10.37,2013-06-24 09:31:00,
2013-06-24 02:37:00,65.0,58.7,29.83,SSW,208,5.0,5.0,80,0.00,CLR,,0.00,0.0,WeatherDisplay:10.37,2013-06-24 09:37:00,
2013-06-24 02:42:00,65.0,58.7,29.83,SSW,192,4.6,4.6,80,0.00,CLR,,0.00,0.0,WeatherDisplay:10.37,2013-06-24 09:42:00,
2013-06-24 02:47:00,64.9,58.6,29.82,SSE,163,5.0,5.0,80,0.00,CLR,,0.00,0.0,WeatherDisplay:10.37,2013-06-24 09:47:00,
2013-06-24 02:52:00,64.8,58.5,29.82,SSW,201,5.8,5.8,80,0.00,CLR,,0.00,0.0,WeatherDisplay:10.37,2013-06-24 09:52:00,
2013-06-24 02:57:00,64.7,58.4,29.82,South,174,4.6,4.6,80,0.00,CLR,,0.00,0.0,WeatherDisplay:10.37,2013-06-24 09:57:00,
2013-06-24 03:02:00,64.7,58.4,29.82,South,185,3.5,3.5,80,0.00,CLR,,0.00,0.0,WeatherDisplay:10.37,2013-06-24 10:02:00,
2013-06-24 03:07:00,64.6,58.3,29.83,SSE,164,4.6,4.6,80,0.00,CLR,,0.00,0.0,WeatherDisplay:10.37,2013-06-24 10:07:00,
2013-06-24 03:12:00,64.6,58.3,29.83,SSW,205,6.9,6.9,80,0.00,CLR,,0.00,0.0,WeatherDisplay:10.37,2013-06-24 10:12:00,
2013-06-24 03:17:00,64.6,58.3,29.83,SSE,165,3.5,3.5,80,0.00,CLR,,0.00,0.0,WeatherDisplay:10.37,2013-06-24 10:17:00,
2013-06-24 03:22:00,64.5,58.2,29.83,South,186,3.5,3.5,80,0.00,CLR,,0.00,0.0,WeatherDisplay:10.37,2013-06-24 10:22:00,
2013-06-24 03:27:00,64.5,58.2,29.83,SSW,198,5.0,5.0,80,0.00,CLR,,0.00,0.0,WeatherDisplay:10.37,2013-06-24 10:27:00,
2013-06-24 03:32:00,64.5,58.2,29.83,SSE,163,5.0,5.0,80,0.00,CLR,,0.00,0.0,WeatherDisplay:10.37,2013-06-24 10:32:00,
2013-06-24 03:37:00,64.5,58.2,29.83,South,173,4.0,4.0,80,0.00,CLR,,0.00,0.0,WeatherDisplay:10.37,2013-06-24 10:37:00,
2013-06-24 03:42:00,64.4,58.1,29.83,SSW,194,3.5,3.5,80,0.00,CLR,,0.00,0.0,WeatherDisplay:10.37,2013-06-24 10:42:00,
2013-06-24 03:47:00,64.3,58.0,29.83,South,178,3.5,3.5,80,0.00,CLR,,0.00,0.0,WeatherDisplay:10.37,2013-06-24 10:47:00,
2013-06-24 03:52:00,64.2,58.2,29.83,South,185,3.5,3.5,81,0.00,CLR,,0.00,0.0,WeatherDisplay:10.37,2013-06-24 10:52:00,
2013-06-24 03:58:00,64.2,58.2,29.84,SSW,194,4.0,4.0,81,0.00,CLR,,0.00,0.0,WeatherDisplay:10.37,2013-06-24 10:58:00,
2013-06-24 04:03:00,64.2,58.2,29.84,SSW,194,4.0,4.0,81,0.00,CLR,,0.00,0.0,WeatherDisplay:10.37,2013-06-24 11:03:00,
2013-06-24 04:08:00,64.2,58.2,29.84,South,191,4.6,4.6,81,0.00,CLR,,0.00,0.0,WeatherDisplay:10.37,2013-06-24 11:08:00,
2013-06-24 04:13:00,64.1,58.1,29.84,South,176,4.0,4.0,81,0.00,CLR,,0.00,0.0,WeatherDisplay:10.37,2013-06-24 11:13:00,
2013-06-24 04:19:00,64.1,58.5,29.84,SSW,192,4.0,4.0,82,0.00,CLR,,0.00,0.0,WeatherDisplay:10.37,2013-06-24 11:19:00,
2013-06-24 04:24:00,64.1,58.5,29.84,South,173,6.0,6.0,82,0.00,CLR,,0.00,0.0,WeatherDisplay:10.37,2013-06-24 11:24:00,
2013-06-24 04:30:00,63.9,58.3,29.84,SSE,161,3.5,3.5,82,0.00,CLR,,0.00,0.0,WeatherDisplay:10.37,2013-06-24 11:30:00,
2013-06-24 04:35:00,63.8,58.2,29.84,SSE,157,5.0,5.0,82,0.00,CLR,,0.00,0.0,WeatherDisplay:10.37,2013-06-24 11:35:00,
2013-06-24 04:40:00,63.7,58.4,29.84,South,179,4.0,4.0,83,0.00,CLR,,0.00,0.0,WeatherDisplay:10.37,2013-06-24 11:40:00,
2013-06-24 04:45:00,63.6,58.3,29.84,SSE,154,7.0,7.0,83,0.00,CLR,,0.00,0.0,WeatherDisplay:10.37,2013-06-24 11:45:00,
2013-06-24 04:50:00,63.5,58.6,29.84,South,184,4.0,4.0,84,0.00,CLR,,0.00,0.0,WeatherDisplay:10.37,2013-06-24 11:50:00,
2013-06-24 04:55:00,63.5,58.6,29.84,South,177,4.6,4.6,84,0.00,CLR,,0.00,0.0,WeatherDisplay:10.37,2013-06-24 11:55:00,
2013-06-24 05:01:00,63.4,58.5,29.84,SE,126,5.0,5.0,84,0.00,CLR,,0.00,0.0,WeatherDisplay:10.37,2013-06-24 12:01:00,
2013-06-24 05:06:00,63.4,58.5,29.85,SSE,161,5.8,5.8,84,0.00,CLR,,0.00,0.0,WeatherDisplay:10.37,2013-06-24 12:06:00,
2013-06-24 05:11:00,63.3,58.4,29.85,SSE,167,3.5,3.5,84,0.00,CLR,,0.00,0.0,WeatherDisplay:10.37,2013-06-24 12:11:00,
2013-06-24 05:16:00,63.3,58.4,29.85,SSE,163,4.6,4.6,84,0.00,CLR,,0.00,0.0,WeatherDisplay:10.37,2013-06-24 12:16:00,
2013-06-24 05:21:00,63.2,58.3,29.85,SE,138,3.5,3.5,84,0.00,CLR,,0.00,0.0,WeatherDisplay:10.37,2013-06-24 12:21:00,
2013-06-24 05:27:00,63.3,58.4,29.85,SE,140,4.0,4.0,84,0.00,CLR,,0.00,0.0,WeatherDisplay:10.37,2013-06-24 12:27:00,
2013-06-24 05:32:00,63.3,58.4,29.86,South,173,4.6,4.6,84,0.00,CLR,,0.00,0.0,WeatherDisplay:10.37,2013-06-24 12:32:00,
2013-06-24 05:37:00,63.3,58.4,29.86,SSE,168,5.0,5.0,84,0.00,CLR,,0.00,0.0,WeatherDisplay:10.37,2013-06-24 12:37:00,
2013-06-24 05:42:00,63.4,58.5,29.86,South,170,4.6,4.6,84,0.00,CLR,,0.00,0.0,WeatherDisplay:10.37,2013-06-24 12:42:00,
2013-06-24 05:47:00,63.4,58.1,29.86,ESE,121,6.9,6.9,83,0.00,CLR,,0.00,0.0,WeatherDisplay:10.37,2013-06-24 12:47:00,
2013-06-24 05:53:00,63.5,58.2,29.86,South,171,5.8,5.8,83,0.00,CLR,,0.00,0.0,WeatherDisplay:10.37,2013-06-24 12:53:00,
2013-06-24 05:58:00,63.6,58.3,29.86,SSE,155,4.6,4.6,83,0.00,CLR,,0.00,0.0,WeatherDisplay:10.37,2013-06-24 12:58:00,
2013-06-24 06:03:00,63.7,58.1,29.86,SE,140,3.5,3.5,82,0.00,CLR,,0.00,5.0,WeatherDisplay:10.37,2013-06-24 13:03:00,
2013-06-24 06:08:00,63.8,58.2,29.86,SSE,157,4.6,4.6,82,0.00,BKN,,0.00,9.0,WeatherDisplay:10.37,2013-06-24 13:08:00,
2013-06-24 06:13:00,63.8,57.9,29.87,South,172,3.5,3.5,81,0.00,BKN,,0.00,11.0,WeatherDisplay:10.37,2013-06-24 13:13:00,
2013-06-24 06:18:00,63.9,58.0,29.87,South,171,3.5,3.5,81,0.00,BKN,,0.00,16.0,WeatherDisplay:10.37,2013-06-24 13:18:00,
2013-06-24 06:23:00,64.0,58.1,29.87,South,170,1.2,1.2,81,0.00,BKN,,0.00,21.0,WeatherDisplay:10.37,2013-06-24 13:23:00,
2013-06-24 06:28:00,64.2,57.9,29.87,South,171,5.0,5.0,80,0.00,BKN,,0.00,23.0,WeatherDisplay:10.37,2013-06-24 13:28:00,
2013-06-24 06:33:00,64.3,57.6,29.87,South,171,3.5,3.5,79,0.00,BKN,,0.00,21.0,WeatherDisplay:10.37,2013-06-24 13:33:00,
2013-06-24 06:40:00,64.5,57.8,29.87,South,182,3.5,3.5,79,0.00,BKN,,0.00,30.0,WeatherDisplay:10.37,2013-06-24 13:40:00,
2013-06-24 06:45:00,64.6,57.9,29.87,South,184,3.5,3.5,79,0.00,BKN,,0.00,54.0,WeatherDisplay:10.37,2013-06-24 13:45:00,
2013-06-24 06:50:00,64.8,58.5,29.88,South,183,4.0,4.0,80,0.00,BKN,,0.00,58.0,WeatherDisplay:10.37,2013-06-24 13:50:00,
2013-06-24 06:55:00,64.8,58.8,29.88,South,188,4.0,4.0,81,0.00,BKN,,0.00,65.0,WeatherDisplay:10.37,2013-06-24 13:55:00,
2013-06-24 07:00:00,64.7,58.7,29.88,South,187,3.5,3.5,81,0.00,BKN,,0.00,74.0,WeatherDisplay:10.37,2013-06-24 14:00:00,
2013-06-24 07:05:00,64.7,58.7,29.88,SSW,193,4.0,4.0,81,0.00,BKN,,0.00,79.0,WeatherDisplay:10.37,2013-06-24 14:05:00,
2013-06-24 07:11:00,64.6,58.6,29.88,SSW,192,5.0,5.0,81,0.00,BKN,,0.00,76.0,WeatherDisplay:10.37,2013-06-24 14:11:00,
2013-06-24 07:17:00,64.5,58.2,29.89,SSW,192,3.5,3.5,80,0.00,BKN,,0.00,83.0,WeatherDisplay:10.37,2013-06-24 14:17:00,
2013-06-24 07:22:00,64.6,58.6,29.89,SSW,192,4.6,4.6,81,0.00,BKN,,0.00,90.0,WeatherDisplay:10.37,2013-06-24 14:22:00,
2013-06-24 07:27:00,64.6,57.9,29.89,SSW,192,4.0,4.0,79,0.00,BKN,,0.00,90.0,WeatherDisplay:10.37,2013-06-24 14:27:00,
2013-06-24 07:33:00,64.7,57.3,29.89,SE,140,4.6,4.6,77,0.00,BKN,,0.00,97.0,WeatherDisplay:10.37,2013-06-24 14:33:00,
2013-06-24 07:38:00,64.9,57.2,29.89,SE,142,6.0,6.0,76,0.00,BKN,,0.00,123.0,WeatherDisplay:10.37,2013-06-24 14:38:00,
2013-06-24 07:43:00,65.1,57.3,29.89,SE,134,4.0,4.0,76,0.00,BKN,,0.00,171.0,WeatherDisplay:10.37,2013-06-24 14:43:00,
2013-06-24 07:48:00,65.4,57.6,29.89,SE,138,6.9,6.9,76,0.00,SCT,,0.00,165.0,WeatherDisplay:10.37,2013-06-24 14:48:00,
2013-06-24 07:53:00,65.4,58.0,29.89,South,188,5.0,5.0,77,0.00,BKN,,0.00,142.0,WeatherDisplay:10.37,2013-06-24 14:53:00,
2013-06-24 07:58:00,65.7,58.3,29.90,SSE,165,5.8,5.8,77,0.00,BKN,,0.00,185.0,WeatherDisplay:10.37,2013-06-24 14:58:00,
2013-06-24 08:03:00,65.7,57.9,29.90,SE,146,4.6,4.6,76,0.00,BKN,,0.00,148.0,WeatherDisplay:10.37,2013-06-24 15:03:00,
2013-06-24 08:08:00,65.8,58.4,29.90,South,175,5.8,5.8,77,0.00,BKN,,0.00,190.0,WeatherDisplay:10.37,2013-06-24 15:08:00,
2013-06-24 08:14:00,65.9,58.8,29.90,South,182,5.0,5.0,78,0.00,BKN,,0.00,202.0,WeatherDisplay:10.37,2013-06-24 15:14:00,
2013-06-24 08:19:00,65.9,58.5,29.90,SSE,159,4.6,4.6,77,0.00,BKN,,0.00,206.0,WeatherDisplay:10.37,2013-06-24 15:19:00,
2013-06-24 08:24:00,66.0,58.2,29.91,SSE,157,4.6,4.6,76,0.00,BKN,,0.00,186.0,WeatherDisplay:10.37,2013-06-24 15:24:00,
2013-06-24 08:29:00,66.0,58.6,29.91,SSE,158,9.2,9.2,77,0.00,BKN,,0.00,178.0,WeatherDisplay:10.37,2013-06-24 15:29:00,
2013-06-24 08:34:00,66.0,58.2,29.91,South,175,3.5,3.5,76,0.00,BKN,,0.00,137.0,WeatherDisplay:10.37,2013-06-24 15:34:00,
2013-06-24 08:39:00,66.2,58.4,29.91,ESE,121,8.1,8.1,76,0.00,BKN,,0.00,264.0,WeatherDisplay:10.37,2013-06-24 15:39:00,
2013-06-24 08:44:00,66.3,58.5,29.91,SSW,206,4.0,4.0,76,0.00,BKN,,0.00,227.0,WeatherDisplay:10.37,2013-06-24 15:44:00,
2013-06-24 08:49:00,66.6,58.8,29.92,SSE,153,8.1,8.1,76,0.00,BKN,,0.00,218.0,WeatherDisplay:10.37,2013-06-24 15:49:00,
2013-06-24 08:54:00,66.5,58.7,29.92,SSW,207,6.9,6.9,76,0.00,BKN,,0.00,272.0,WeatherDisplay:10.37,2013-06-24 15:54:00,
2013-06-24 08:59:00,66.6,58.8,29.92,SE,128,9.0,9.0,76,0.00,BKN,,0.00,285.0,WeatherDisplay:10.37,2013-06-24 15:59:00,
2013-06-24 09:04:00,66.5,58.3,29.92,SE,134,5.8,5.8,75,0.00,BKN,,0.00,265.0,WeatherDisplay:10.37,2013-06-24 16:04:00,
2013-06-24 09:09:00,66.7,58.5,29.92,SSE,153,6.0,6.0,75,0.00,BKN,,0.00,348.0,WeatherDisplay:10.37,2013-06-24 16:09:00,
2013-06-24 09:14:00,66.8,58.6,29.92,ESE,121,8.0,8.0,75,0.00,BKN,,0.00,338.0,WeatherDisplay:10.37,2013-06-24 16:14:00,
2013-06-24 09:19:00,66.7,58.5,29.92,South,172,8.0,8.0,75,0.00,SCT,,0.00,339.0,WeatherDisplay:10.37,2013-06-24 16:19:00,
2013-06-24 09:24:00,66.6,58.4,29.92,SE,127,9.2,9.2,75,0.00,BKN,,0.00,227.0,WeatherDisplay:10.37,2013-06-24 16:24:00,
2013-06-24 09:30:00,66.3,58.5,29.92,SE,138,6.9,6.9,76,0.00,BKN,,0.00,253.0,WeatherDisplay:10.37,2013-06-24 16:30:00,
2013-06-24 09:35:00,66.4,58.6,29.93,SSE,168,4.6,4.6,76,0.00,BKN,,0.00,267.0,WeatherDisplay:10.37,2013-06-24 16:35:00,
2013-06-24 09:40:00,66.5,58.7,29.93,SSE,148,6.9,6.9,76,0.00,BKN,,0.00,243.0,WeatherDisplay:10.37,2013-06-24 16:40:00,
2013-06-24 09:45:00,66.7,59.3,29.93,South,183,6.9,6.9,77,0.00,BKN,,0.00,225.0,WeatherDisplay:10.37,2013-06-24 16:45:00,
2013-06-24 09:50:00,66.7,59.3,29.93,South,172,6.0,6.0,77,0.00,BKN,,0.00,137.0,WeatherDisplay:10.37,2013-06-24 16:50:00,
2013-06-24 09:55:00,66.4,59.3,29.93,SSE,163,6.9,6.9,78,0.00,BKN,,0.00,142.0,WeatherDisplay:10.37,2013-06-24 16:55:00,
2013-06-24 10:00:00,66.1,59.0,29.93,SSW,205,7.0,7.0,78,0.00,BKN,,0.00,141.0,WeatherDisplay:10.37,2013-06-24 17:00:00,
2013-06-24 10:05:00,65.8,59.1,29.93,SSW,211,10.4,10.4,79,0.00,BKN,,0.00,156.0,WeatherDisplay:10.37,2013-06-24 17:05:00,
2013-06-24 10:10:00,65.6,59.3,29.93,SSE,157,6.9,6.9,80,0.00,BKN,,0.00,172.0,WeatherDisplay:10.37,2013-06-24 17:10:00,
2013-06-24 10:15:00,65.6,58.9,29.93,SSW,202,5.8,5.8,79,0.00,BKN,,0.00,169.0,WeatherDisplay:10.37,2013-06-24 17:15:00,
2013-06-24 10:20:00,65.7,59.0,29.93,SSW,194,6.9,6.9,79,0.00,BKN,,0.00,172.0,WeatherDisplay:10.37,2013-06-24 17:20:00,
2013-06-24 10:25:00,65.6,58.6,29.93,South,186,6.9,6.9,78,0.00,BKN,,0.00,134.0,WeatherDisplay:10.37,2013-06-24 17:25:00,
2013-06-24 10:30:00,65.6,58.6,29.93,SSE,164,8.1,8.1,78,0.00,BKN,,0.00,218.0,WeatherDisplay:10.37,2013-06-24 17:30:00,
2013-06-24 10:35:00,65.8,58.7,29.93,South,177,6.9,6.9,78,0.00,BKN,,0.00,272.0,WeatherDisplay:10.37,2013-06-24 17:35:00,
2013-06-24 10:41:00,65.8,58.4,29.94,South,177,3.5,3.5,77,0.00,BKN,,0.00,211.0,WeatherDisplay:10.37,2013-06-24 17:41:00,
2013-06-24 10:46:00,66.2,58.8,29.93,SSW,207,3.5,3.5,77,0.00,BKN,,0.00,269.0,WeatherDisplay:10.37,2013-06-24 17:46:00,
2013-06-24 10:51:00,66.4,58.6,29.94,SW,215,6.9,6.9,76,0.00,BKN,,0.00,297.0,WeatherDisplay:10.37,2013-06-24 17:51:00,
2013-06-24 10:56:00,66.6,58.8,29.93,South,178,4.0,4.0,76,0.00,BKN,,0.00,278.0,WeatherDisplay:10.37,2013-06-24 17:56:00,
2013-06-24 11:01:00,66.8,58.6,29.93,SSW,203,5.8,5.8,75,0.00,BKN,,0.00,271.0,WeatherDisplay:10.37,2013-06-24 18:01:00,
2013-06-24 11:07:00,67.2,59.0,29.93,SSW,207,6.0,6.0,75,0.00,BKN,,0.00,413.0,WeatherDisplay:10.37,2013-06-24 18:07:00,
2013-06-24 11:12:00,67.4,58.8,29.93,SSE,166,9.2,9.2,74,0.00,BKN,,0.00,490.0,WeatherDisplay:10.37,2013-06-24 18:12:00,
2013-06-24 11:17:00,67.7,58.7,29.93,South,180,7.0,7.0,73,0.00,SCT,,0.00,582.0,WeatherDisplay:10.37,2013-06-24 18:17:00,
2013-06-24 11:22:00,68.4,58.6,29.93,SSE,157,10.4,10.4,71,0.00,BKN,,0.00,513.0,WeatherDisplay:10.37,2013-06-24 18:22:00,
2013-06-24 11:27:00,68.5,58.7,29.93,SE,133,8.1,8.1,71,0.00,BKN,,0.00,408.0,WeatherDisplay:10.37,2013-06-24 18:27:00,
2013-06-24 11:32:00,68.5,59.1,29.93,SE,134,4.6,4.6,72,0.00,BKN,,0.00,464.0,WeatherDisplay:10.37,2013-06-24 18:32:00,
2013-06-24 11:37:00,68.8,59.0,29.93,SE,144,9.2,9.2,71,0.00,SCT,,0.00,758.0,WeatherDisplay:10.37,2013-06-24 18:37:00,
2013-06-24 11:42:00,68.8,59.0,29.92,SSE,163,7.0,7.0,71,0.00,BKN,,0.00,476.0,WeatherDisplay:10.37,2013-06-24 18:42:00,
2013-06-24 11:47:00,69.1,58.9,29.92,South,178,11.5,11.5,70,0.00,BKN,,0.00,513.0,WeatherDisplay:10.37,2013-06-24 18:47:00,
2013-06-24 11:53:00,68.9,58.7,29.93,SSE,163,11.0,11.0,70,0.00,BKN,,0.00,371.0,WeatherDisplay:10.37,2013-06-24 18:53:00,
2013-06-24 11:58:00,68.7,58.9,29.92,SSW,211,8.1,8.1,71,0.00,BKN,,0.00,380.0,WeatherDisplay:10.37,2013-06-24 18:58:00,
2013-06-24 12:03:00,68.7,59.3,29.93,SSE,167,11.5,11.5,72,0.00,BKN,,0.00,1048.0,WeatherDisplay:10.37,2013-06-24 19:03:00,
2013-06-24 12:08:00,68.9,59.1,29.92,SSW,202,8.1,8.1,71,0.00,BKN,,0.00,436.0,WeatherDisplay:10.37,2013-06-24 19:08:00,
2013-06-24 12:13:00,69.2,59.0,29.92,SSW,209,7.0,7.0,70,0.00,SCT,,0.00,659.0,WeatherDisplay:10.37,2013-06-24 19:13:00,
2013-06-24 12:18:00,69.3,58.7,29.92,South,170,4.0,4.0,69,0.00,SCT,,0.00,506.0,WeatherDisplay:10.37,2013-06-24 19:18:00,
2013-06-24 12:24:00,69.7,59.1,29.92,SSE,162,8.1,8.1,69,0.00,BKN,,0.00,461.0,WeatherDisplay:10.37,2013-06-24 19:24:00,
2013-06-24 12:29:00,70.1,59.5,29.92,SSE,147,6.0,6.0,69,0.00,BKN,,0.00,357.0,WeatherDisplay:10.37,2013-06-24 19:29:00,
2013-06-24 12:34:00,70.1,59.0,29.92,South,188,4.0,4.0,68,0.00,BKN,,0.00,234.0,WeatherDisplay:10.37,2013-06-24 19:34:00,
2013-06-24 12:39:00,70.0,59.0,29.93,SE,142,8.1,8.1,68,0.00,BKN,,0.00,248.0,WeatherDisplay:10.37,2013-06-24 19:39:00,
2013-06-24 12:44:00,69.7,59.1,29.93,SSW,197,6.9,6.9,69,0.00,BKN,,0.00,246.0,WeatherDisplay:10.37,2013-06-24 19:44:00,
2013-06-24 12:49:00,69.5,58.9,29.93,SSE,157,8.1,8.1,69,0.00,BKN,,0.00,288.0,WeatherDisplay:10.37,2013-06-24 19:49:00,
2013-06-24 12:55:00,69.4,58.8,29.93,SSE,167,3.5,3.5,69,0.00,BKN,,0.00,174.0,WeatherDisplay:10.37,2013-06-24 19:55:00,
2013-06-24 12:59:00,69.3,58.7,29.92,SSW,196,6.9,6.9,69,0.00,BKN,,0.00,246.0,WeatherDisplay:10.37,2013-06-24 19:59:00,
2013-06-24 13:04:00,69.5,58.9,29.93,SSW,209,8.1,8.1,69,0.00,BKN,,0.00,297.0,WeatherDisplay:10.37,2013-06-24 20:04:00,
2013-06-24 13:09:00,69.7,59.1,29.93,South,169,10.4,10.4,69,0.00,BKN,,0.00,401.0,WeatherDisplay:10.37,2013-06-24 20:09:00,
2013-06-24 13:14:00,70.1,59.0,29.92,SSW,200,9.2,9.2,68,0.00,SCT,,0.00,605.0,WeatherDisplay:10.37,2013-06-24 20:14:00,
2013-06-24 13:20:00,70.6,59.1,29.93,SSE,164,8.1,8.1,67,0.00,BKN,,0.00,418.0,WeatherDisplay:10.37,2013-06-24 20:20:00,
2013-06-24 13:25:00,71.0,59.5,29.93,SSE,162,8.0,8.0,67,0.00,SCT,,0.00,705.0,WeatherDisplay:10.37,2013-06-24 20:25:00,
2013-06-24 13:30:00,70.8,58.9,29.92,SSE,148,9.0,9.0,66,0.00,BKN,,0.00,506.0,WeatherDisplay:10.37,2013-06-24 20:30:00,
2013-06-24 13:35:00,70.5,59.0,29.92,South,174,9.2,9.2,67,0.00,SCT,,0.00,745.0,WeatherDisplay:10.37,2013-06-24 20:35:00,
2013-06-24 13:40:00,70.8,58.9,29.92,SSW,205,3.0,8.0,66,0.00,BKN,,0.00,487.0,WeatherDisplay:10.37,2013-06-24 20:40:00,
2013-06-24 13:45:00,71.1,58.7,29.92,South,169,8.1,8.1,65,0.00,BKN,,0.00,406.0,WeatherDisplay:10.37,2013-06-24 20:45:00,
2013-06-24 13:50:00,71.3,58.9,29.92,SSW,194,6.9,6.9,65,0.00,BKN,,0.00,359.0,WeatherDisplay:10.37,2013-06-24 20:50:00,
2013-06-24 13:55:00,71.3,58.9,29.92,SSW,211,5.8,5.8,65,0.00,BKN,,0.00,311.0,WeatherDisplay:10.37,2013-06-24 20:55:00,
2013-06-24 14:01:00,71.6,58.8,29.92,SSW,204,7.0,7.0,64,0.00,BKN,,0.00,299.0,WeatherDisplay:10.37,2013-06-24 21:01:00,
2013-06-24 14:06:00,71.6,58.8,29.92,SE,140,6.0,6.0,64,0.00,BKN,,0.00,320.0,WeatherDisplay:10.37,2013-06-24 21:06:00,
2013-06-24 14:11:00,71.6,58.8,29.92,SSW,213,5.0,5.0,64,0.00,BKN,,0.00,299.0,WeatherDisplay:10.37,2013-06-24 21:11:00,
2013-06-24 14:17:00,71.6,58.8,29.92,South,186,4.0,4.0,64,0.00,BKN,,0.00,330.0,WeatherDisplay:10.37,2013-06-24 21:17:00,
2013-06-24 14:22:00,71.6,58.8,29.92,SSW,206,7.0,7.0,64,0.00,BKN,,0.00,394.0,WeatherDisplay:10.37,2013-06-24 21:22:00,
2013-06-24 14:27:00,71.5,58.7,29.92,South,182,5.8,5.8,64,0.00,BKN,,0.00,420.0,WeatherDisplay:10.37,2013-06-24 21:27:00,
2013-06-24 14:32:00,71.8,59.0,29.92,West,269,5.8,5.8,64,0.00,BKN,,0.00,540.0,WeatherDisplay:10.37,2013-06-24 21:32:00,
2013-06-24 14:37:00,72.5,58.7,29.92,WSW,256,8.0,8.0,62,0.00,SCT,,0.00,476.0,WeatherDisplay:10.37,2013-06-24 21:37:00,
2013-06-24 14:42:00,72.4,58.6,29.91,West,264,5.8,5.8,62,0.00,SCT,,0.00,571.0,WeatherDisplay:10.37,2013-06-24 21:42:00,
2013-06-24 14:47:00,72.9,58.7,29.91,West,265,5.8,5.8,61,0.00,BKN,,0.00,446.0,WeatherDisplay:10.37,2013-06-24 21:47:00,
2013-06-24 14:52:00,72.8,58.6,29.91,ESE,113,5.8,5.8,61,0.00,BKN,,0.00,343.0,WeatherDisplay:10.37,2013-06-24 21:52:00,
2013-06-24 14:57:00,72.9,59.1,29.91,SSW,207,5.8,5.8,62,0.00,BKN,,0.00,343.0,WeatherDisplay:10.37,2013-06-24 21:57:00,
2013-06-24 15:02:00,73.0,59.2,29.91,South,169,5.8,5.8,62,0.00,BKN,,0.00,397.0,WeatherDisplay:10.37,2013-06-24 22:02:00,
2013-06-24 15:08:00,73.5,59.2,29.91,SW,228,5.8,5.8,61,0.00,FEW,,0.00,761.0,WeatherDisplay:10.37,2013-06-24 22:08:00,
2013-06-24 15:13:00,74.3,59.0,29.90,SSW,194,6.9,6.9,59,0.00,FEW,,0.00,754.0,WeatherDisplay:10.37,2013-06-24 22:13:00,
2013-06-24 15:18:00,74.1,59.3,29.90,SW,225,7.0,7.0,60,0.00,SCT,,0.00,334.0,WeatherDisplay:10.37,2013-06-24 22:18:00,
2013-06-24 15:24:00,74.0,58.8,29.91,South,180,6.0,6.0,59,0.00,FEW,,0.00,728.0,WeatherDisplay:10.37,2013-06-24 22:24:00,
2013-06-24 15:29:00,73.5,58.8,29.90,ESE,119,7.0,7.0,60,0.00,SCT,,0.00,367.0,WeatherDisplay:10.37,2013-06-24 22:29:00,
2013-06-24 15:34:00,73.5,58.8,29.90,South,190,9.2,9.2,60,0.00,CLR,,0.00,719.0,WeatherDisplay:10.37,2013-06-24 22:34:00,
2013-06-24 15:39:00,73.8,59.0,29.90,ESE,116,7.0,7.0,60,0.00,CLR,,0.00,789.0,WeatherDisplay:10.37,2013-06-24 22:39:00,
2013-06-24 15:44:00,73.7,58.9,29.89,SE,144,6.9,6.9,60,0.00,CLR,,0.00,772.0,WeatherDisplay:10.37,2013-06-24 22:44:00,
2013-06-24 15:50:00,74.0,59.2,29.89,SSE,165,7.0,7.0,60,0.00,CLR,,0.00,701.0,WeatherDisplay:10.37,2013-06-24 22:50:00,
2013-06-24 15:55:00,74.9,59.1,29.89,SSE,155,6.9,6.9,58,0.00,FEW,,0.00,666.0,WeatherDisplay:10.37,2013-06-24 22:55:00,
2013-06-24 16:00:00,74.6,59.3,29.89,South,184,5.0,5.0,59,0.00,FEW,,0.00,677.0,WeatherDisplay:10.37,2013-06-24 23:00:00,
2013-06-24 16:05:00,74.8,59.0,29.89,SSE,160,5.0,5.0,58,0.00,CLR,,0.00,682.0,WeatherDisplay:10.37,2013-06-24 23:05:00,
2013-06-24 16:11:00,75.2,58.9,29.89,SSE,157,7.0,7.0,57,0.00,FEW,,0.00,615.0,WeatherDisplay:10.37,2013-06-24 23:11:00,
2013-06-24 16:16:00,74.8,59.0,29.89,SE,134,6.0,6.0,58,0.00,FEW,,0.00,628.0,WeatherDisplay:10.37,2013-06-24 23:16:00,
2013-06-24 16:21:00,74.9,59.1,29.88,SSW,200,4.6,4.6,58,0.00,FEW,,0.00,610.0,WeatherDisplay:10.37,2013-06-24 23:21:00,
2013-06-24 16:26:00,75.3,59.5,29.89,SW,217,4.6,4.6,58,0.00,FEW,,0.00,538.0,WeatherDisplay:10.37,2013-06-24 23:26:00,
2013-06-24 16:32:00,75.3,59.5,29.88,SSE,154,6.9,6.9,58,0.00,CLR,,0.00,585.0,WeatherDisplay:10.37,2013-06-24 23:32:00,
2013-06-24 16:37:00,75.1,59.3,29.88,SW,215,5.0,5.0,58,0.00,CLR,,0.00,603.0,WeatherDisplay:10.37,2013-06-24 23:37:00,
2013-06-24 16:42:00,75.7,59.4,29.88,West,281,8.0,8.0,57,0.00,CLR,,0.00,603.0,WeatherDisplay:10.37,2013-06-24 23:42:00,
2013-06-24 16:47:00,76.0,59.2,29.88,SW,225,4.6,4.6,56,0.00,CLR,,0.00,541.0,WeatherDisplay:10.37,2013-06-24 23:47:00,
2013-06-24 16:52:00,76.0,59.2,29.88,WNW,292,8.1,8.1,56,0.00,FEW,,0.00,489.0,WeatherDisplay:10.37,2013-06-24 23:52:00,
2013-06-24 16:57:00,75.7,58.9,29.88,SW,223,6.0,6.0,56,0.00,BKN,,0.00,144.0,WeatherDisplay:10.37,2013-06-24 23:57:00,
2013-06-24 17:02:00,75.5,58.7,29.88,West,259,6.9,6.9,56,0.00,SCT,,0.00,538.0,WeatherDisplay:10.37,2013-06-25 00:02:00,
2013-06-24 17:08:00,75.8,59.0,29.88,West,275,8.0,8.0,56,0.00,CLR,,0.00,526.0,WeatherDisplay:10.37,2013-06-25 00:08:00,
2013-06-24 17:13:00,75.8,59.5,29.87,West,260,6.9,6.9,57,0.00,SCT,,0.00,192.0,WeatherDisplay:10.37,2013-06-25 00:13:00,
2013-06-24 17:18:00,75.9,59.6,29.88,SSW,201,5.0,5.0,57,0.00,BKN,,0.00,160.0,WeatherDisplay:10.37,2013-06-25 00:18:00,
2013-06-24 17:23:00,75.5,59.2,29.88,SSW,213,5.0,5.0,57,0.00,BKN,,0.00,181.0,WeatherDisplay:10.37,2013-06-25 00:23:00,
2013-06-24 17:29:00,75.6,59.3,29.88,SSW,211,8.1,8.1,57,0.00,BKN,,0.00,186.0,WeatherDisplay:10.37,2013-06-25 00:29:00,
2013-06-24 17:34:00,75.0,58.7,29.87,WNW,298,9.2,9.2,57,0.00,BKN,,0.00,153.0,WeatherDisplay:10.37,2013-06-25 00:34:00,
2013-06-24 17:39:00,74.9,59.1,29.88,SW,224,9.2,9.2,58,0.00,CLR,,0.00,373.0,WeatherDisplay:10.37,2013-06-25 00:39:00,
2013-06-24 17:44:00,75.3,59.0,29.88,SSW,210,9.2,9.2,57,0.00,CLR,,0.00,392.0,WeatherDisplay:10.37,2013-06-25 00:44:00,
2013-06-24 17:49:00,75.3,59.5,29.88,West,265,11.0,11.0,58,0.00,CLR,,0.00,330.0,WeatherDisplay:10.37,2013-06-25 00:49:00,
2013-06-24 17:54:00,74.7,59.4,29.87,West,261,10.4,10.4,59,0.00,FEW,,0.00,315.0,WeatherDisplay:10.37,2013-06-25 00:54:00,
2013-06-24 17:59:00,74.5,59.7,29.88,West,265,9.0,9.0,60,0.00,FEW,,0.00,297.0,WeatherDisplay:10.37,2013-06-25 00:59:00,
2013-06-24 18:04:00,74.6,59.8,29.88,WSW,256,12.0,12.0,60,0.00,FEW,,0.00,283.0,WeatherDisplay:10.37,2013-06-25 01:04:00,
2013-06-24 18:09:00,74.1,59.8,29.88,West,264,11.5,11.5,61,0.00,FEW,,0.00,265.0,WeatherDisplay:10.37,2013-06-25 01:09:00,
2013-06-24 18:15:00,73.6,59.8,29.88,WNW,296,12.7,12.7,62,0.00,FEW,,0.00,244.0,WeatherDisplay:10.37,2013-06-25 01:15:00,
2013-06-24 18:21:00,73.4,59.6,29.88,West,276,11.5,11.5,62,0.00,FEW,,0.00,227.0,WeatherDisplay:10.37,2013-06-25 01:21:00,
2013-06-24 18:26:00,73.1,59.8,29.88,WSW,256,11.5,11.5,63,0.00,FEW,,0.00,211.0,WeatherDisplay:10.37,2013-06-25 01:26:00,
2013-06-24 18:31:00,73.2,59.8,29.88,SSW,211,8.1,8.1,63,0.00,FEW,,0.00,199.0,WeatherDisplay:10.37,2013-06-25 01:31:00,
2013-06-24 18:36:00,73.2,59.8,29.88,West,273,6.9,6.9,63,0.00,FEW,,0.00,183.0,WeatherDisplay:10.37,2013-06-25 01:36:00,
2013-06-24 18:41:00,72.9,60.0,29.88,WSW,246,8.1,8.1,64,0.00,FEW,,0.00,169.0,WeatherDisplay:10.37,2013-06-25 01:41:00,
2013-06-24 18:46:00,72.5,59.6,29.88,WSW,244,7.0,7.0,64,0.00,FEW,,0.00,153.0,WeatherDisplay:10.37,2013-06-25 01:46:00,
2013-06-24 18:51:00,72.5,59.6,29.89,SSW,207,8.1,8.1,64,0.00,SCT,,0.00,137.0,WeatherDisplay:10.37,2013-06-25 01:51:00,
2013-06-24 18:57:00,72.6,59.7,29.89,SSW,209,6.9,6.9,64,0.00,SCT,,0.00,120.0,WeatherDisplay:10.37,2013-06-25 01:57:00,
2013-06-24 19:02:00,72.4,60.0,29.88,WSW,250,6.9,6.9,65,0.00,SCT,,0.00,102.0,WeatherDisplay:10.37,2013-06-25 02:02:00,
2013-06-24 19:07:00,71.9,59.9,29.89,SW,227,4.6,4.6,66,0.00,SCT,,0.00,88.0,WeatherDisplay:10.37,2013-06-25 02:07:00,
2013-06-24 19:12:00,71.8,59.4,29.89,West,266,8.1,8.1,65,0.00,SCT,,0.00,76.0,WeatherDisplay:10.37,2013-06-25 02:12:00,
2013-06-24 19:17:00,71.5,59.1,29.89,WNW,282,11.5,11.5,65,0.00,SCT,,0.00,62.0,WeatherDisplay:10.37,2013-06-25 02:17:00,
2013-06-24 19:22:00,71.3,59.4,29.89,WSW,242,8.1,8.1,66,0.00,BKN,,0.00,47.0,WeatherDisplay:10.37,2013-06-25 02:22:00,
2013-06-24 19:27:00,71.2,59.3,29.89,West,263,11.5,11.5,66,0.00,BKN,,0.00,40.0,WeatherDisplay:10.37,2013-06-25 02:27:00,
2013-06-24 19:32:00,70.7,58.8,29.89,West,263,10.4,10.4,66,0.00,BKN,,0.00,32.0,WeatherDisplay:10.37,2013-06-25 02:32:00,
2013-06-24 19:37:00,70.6,59.1,29.89,WSW,245,8.1,8.1,67,0.00,BKN,,0.00,25.0,WeatherDisplay:10.37,2013-06-25 02:37:00,
2013-06-24 19:42:00,70.6,59.1,29.89,West,264,6.0,6.0,67,0.00,BKN,,0.00,18.0,WeatherDisplay:10.37,2013-06-25 02:42:00,
2013-06-24 19:47:00,70.4,58.9,29.89,WNW,283,8.1,8.1,67,0.00,BKN,,0.00,14.0,WeatherDisplay:10.37,2013-06-25 02:47:00,
2013-06-24 19:52:00,70.3,59.2,29.89,WNW,284,8.1,8.1,68,0.00,BKN,,0.00,11.0,WeatherDisplay:10.37,2013-06-25 02:52:00,
2013-06-24 19:58:00,69.9,58.9,29.89,WNW,283,8.1,8.1,68,0.00,BKN,,0.00,5.0,WeatherDisplay:10.37,2013-06-25 02:58:00,
2013-06-24 20:03:00,69.7,59.1,29.89,West,269,8.1,8.1,69,0.00,CLR,,0.00,0.0,WeatherDisplay:10.37,2013-06-25 03:03:00,
2013-06-24 20:08:00,69.5,59.3,29.89,West,279,7.0,7.0,70,0.00,CLR,,0.00,0.0,WeatherDisplay:10.37,2013-06-25 03:08:00,
2013-06-24 20:13:00,69.4,59.2,29.90,West,276,9.2,9.2,70,0.00,CLR,,0.00,0.0,WeatherDisplay:10.37,2013-06-25 03:13:00,
2013-06-24 20:20:00,69.0,59.2,29.90,West,277,10.4,10.4,71,0.00,CLR,,0.00,0.0,WeatherDisplay:10.37,2013-06-25 03:20:00,
2013-06-24 20:26:00,68.9,59.1,29.90,WNW,295,8.1,8.1,71,0.00,CLR,,0.00,0.0,WeatherDisplay:10.37,2013-06-25 03:26:00,
2013-06-24 20:31:00,68.8,59.4,29.90,West,263,7.0,7.0,72,0.00,CLR,,0.00,0.0,WeatherDisplay:10.37,2013-06-25 03:31:00,
2013-06-24 20:37:00,68.5,58.7,29.90,WNW,289,9.2,9.2,71,0.00,CLR,,0.00,0.0,WeatherDisplay:10.37,2013-06-25 03:37:00,
2013-06-24 20:44:00,68.3,58.9,29.90,WNW,290,10.4,10.4,72,0.00,CLR,,0.00,0.0,WeatherDisplay:10.37,2013-06-25 03:44:00,
2013-06-24 20:51:00,68.0,59.0,29.90,WNW,290,9.0,9.0,73,0.00,CLR,,0.00,0.0,WeatherDisplay:10.37,2013-06-25 03:51:00,
2013-06-24 20:58:00,67.8,58.8,29.90,West,280,8.1,8.1,73,0.00,CLR,,0.00,0.0,WeatherDisplay:10.37,2013-06-25 03:58:00,
2013-06-24 21:01:00,67.7,58.7,29.90,WNW,289,8.1,8.1,73,0.00,CLR,,0.00,0.0,WeatherDisplay:10.37,2013-06-25 04:01:00,
2013-06-24 21:02:00,67.7,59.1,29.91,WNW,294,8.1,8.1,74,0.00,CLR,,0.00,0.0,WeatherDisplay:10.37,2013-06-25 04:02:00,
2013-06-24 21:03:00,67.7,59.1,29.91,West,277,9.2,9.2,74,0.00,CLR,,0.00,0.0,WeatherDisplay:10.37,2013-06-25 04:03:00,
2013-06-24 21:08:00,67.6,59.0,29.91,West,272,7.0,7.0,74,0.00,CLR,,0.00,0.0,WeatherDisplay:10.37,2013-06-25 04:08:00,
2013-06-24 21:13:00,67.4,59.2,29.91,WNW,290,6.0,6.0,75,0.00,CLR,,0.00,0.0,WeatherDisplay:10.37,2013-06-25 04:13:00,
2013-06-24 21:18:00,67.3,59.1,29.91,West,269,5.0,5.0,75,0.00,CLR,,0.00,0.0,WeatherDisplay:10.37,2013-06-25 04:18:00,
2013-06-24 21:23:00,67.3,59.5,29.91,West,280,5.8,5.8,76,0.00,CLR,,0.00,0.0,WeatherDisplay:10.37,2013-06-25 04:23:00,
2013-06-24 21:28:00,67.2,59.4,29.92,West,275,5.8,5.8,76,0.00,CLR,,0.00,0.0,WeatherDisplay:10.37,2013-06-25 04:28:00,
2013-06-24 21:33:00,67.1,59.6,29.92,WNW,288,5.0,5.0,77,0.00,CLR,,0.00,0.0,WeatherDisplay:10.37,2013-06-25 04:33:00,
2013-06-24 21:38:00,66.9,59.5,29.92,West,280,4.6,4.6,77,0.00,CLR,,0.00,0.0,WeatherDisplay:10.37,2013-06-25 04:38:00,
2013-06-24 21:43:00,66.9,59.8,29.92,West,276,4.6,4.6,78,0.00,CLR,,0.00,0.0,WeatherDisplay:10.37,2013-06-25 04:43:00,
2013-06-24 21:48:00,66.8,59.7,29.92,West,275,3.5,3.5,78,0.00,CLR,,0.00,0.0,WeatherDisplay:10.37,2013-06-25 04:48:00,
2013-06-24 21:53:00,66.8,60.1,29.92,West,275,5.0,5.0,79,0.00,CLR,,0.00,0.0,WeatherDisplay:10.37,2013-06-25 04:53:00,
2013-06-24 21:58:00,66.8,60.1,29.92,West,275,4.0,4.0,79,0.00,CLR,,0.00,0.0,WeatherDisplay:10.37,2013-06-25 04:58:00,
2013-06-24 22:03:00,66.7,60.0,29.92,West,275,4.6,4.6,79,0.00,CLR,,0.00,0.0,WeatherDisplay:10.37,2013-06-25 05:03:00,
2013-06-24 22:08:00,66.7,60.0,29.92,West,275,5.0,5.0,79,0.00,CLR,,0.00,0.0,WeatherDisplay:10.37,2013-06-25 05:08:00,
2013-06-24 22:13:00,66.7,60.0,29.92,West,275,3.5,3.5,79,0.00,CLR,,0.00,0.0,WeatherDisplay:10.37,2013-06-25 05:13:00,
2013-06-24 22:18:00,66.7,60.0,29.92,West,275,4.6,4.6,79,0.00,CLR,,0.00,0.0,WeatherDisplay:10.37,2013-06-25 05:18:00,
2013-06-24 22:23:00,66.7,60.0,29.92,West,275,3.5,3.5,79,0.00,CLR,,0.00,0.0,WeatherDisplay:10.37,2013-06-25 05:23:00,
2013-06-24 22:28:00,66.7,60.0,29.92,West,275,3.5,3.5,79,0.00,CLR,,0.00,0.0,WeatherDisplay:10.37,2013-06-25 05:28:00,
2013-06-24 22:33:00,66.7,60.0,29.92,West,275,4.0,4.0,79,0.00,CLR,,0.00,0.0,WeatherDisplay:10.37,2013-06-25 05:33:00,
2013-06-24 22:38:00,66.6,59.9,29.92,West,275,3.5,3.5,79,0.00,CLR,,0.00,0.0,WeatherDisplay:10.37,2013-06-25 05:38:00,
2013-06-24 22:43:00,66.6,60.2,29.92,West,275,4.0,4.0,80,0.00,CLR,,0.00,0.0,WeatherDisplay:10.37,2013-06-25 05:43:00,
2013-06-24 22:48:00,66.6,60.2,29.91,West,275,3.5,3.5,80,0.00,CLR,,0.00,0.0,WeatherDisplay:10.37,2013-06-25 05:48:00,
2013-06-24 22:53:00,66.6,60.2,29.92,West,275,5.0,5.0,80,0.00,CLR,,0.00,0.0,WeatherDisplay:10.37,2013-06-25 05:53:00,
2013-06-24 22:58:00,66.5,60.1,29.92,West,275,3.5,3.5,80,0.00,CLR,,0.00,0.0,WeatherDisplay:10.37,2013-06-25 05:58:00,
2013-06-24 23:03:00,66.4,60.0,29.92,West,275,4.6,4.6,80,0.00,CLR,,0.00,0.0,WeatherDisplay:10.37,2013-06-25 06:03:00,
2013-06-24 23:08:00,66.4,60.0,29.92,West,275,3.5,3.5,80,0.00,CLR,,0.00,0.0,WeatherDisplay:10.37,2013-06-25 06:08:00,
2013-06-24 23:13:00,66.4,60.4,29.92,West,275,3.0,3.0,81,0.00,CLR,,0.00,0.0,WeatherDisplay:10.37,2013-06-25 06:13:00,
2013-06-24 23:18:00,66.3,60.3,29.92,West,275,3.5,3.5,81,0.00,CLR,,0.00,0.0,WeatherDisplay:10.37,2013-06-25 06:18:00,
2013-06-24 23:23:00,66.2,60.2,29.92,West,275,4.0,4.0,81,0.00,CLR,,0.00,0.0,WeatherDisplay:10.37,2013-06-25 06:23:00,
2013-06-24 23:28:00,66.1,60.1,29.92,West,275,3.5,3.5,81,0.00,CLR,,0.00,0.0,WeatherDisplay:10.37,2013-06-25 06:28:00,
2013-06-24 23:33:00,66.0,60.3,29.92,West,275,3.5,3.5,82,0.00,CLR,,0.00,0.0,WeatherDisplay:10.37,2013-06-25 06:33:00,
2013-06-24 23:38:00,65.9,60.2,29.92,West,275,3.5,3.5,82,0.00,CLR,,0.00,0.0,WeatherDisplay:10.37,2013-06-25 06:38:00,
2013-06-24 23:43:00,65.9,60.6,29.92,West,275,2.3,2.3,83,0.00,CLR,,0.00,0.0,WeatherDisplay:10.37,2013-06-25 06:43:00,
2013-06-24 23:48:00,65.8,60.2,29.92,West,275,3.5,3.5,82,0.00,CLR,,0.00,0.0,WeatherDisplay:10.37,2013-06-25 06:48:00,
2013-06-24 23:53:00,65.7,60.1,29.92,West,275,5.0,5.0,82,0.00,CLR,,0.00,0.0,WeatherDisplay:10.37,2013-06-25 06:53:00,
2013-06-24 23:58:00,65.6,60.0,29.92,West,275,4.0,4.0,82,0.00,CLR,,0.00,0.0,WeatherDisplay:10.37,2013-06-25 06:58:00,